W8KVG Weather Reports


time (UTC)temp
C
wind
direction
speed
KPH
gust
KPH
rain 1hr
cm
rain 24hr
cm
rain mn
cm
humidity
%
barometer
mb
20260503200033 15 121 1.6 8.0 0.00 0.00 0.00 38 1013.4
20260503195530 16 242 0.0 9.7 0.00 0.00 0.00 37 1013.3
20260503195027 16 186 6.4 11.3 0.00 0.00 0.00 35 1013.6
20260503194524 15 205 4.8 16.1 0.00 0.00 0.00 37 1013.7
20260503194023 15 280 0.0 9.7 0.00 0.00 0.00 36 1013.8
20260503193520 15 293 4.8 17.7 0.00 0.00 0.00 35 1013.7
20260503193010 16 15 8.0 11.3 0.00 0.00 0.00 35 1013.9
20260503192507 15 333 6.4 12.9 0.00 0.00 0.00 38 1013.9
20260503192003 16 356 8.0 17.7 0.00 0.00 0.00 35 1013.9
20260503191500 16 352 6.4 12.9 0.00 0.00 0.00 38 1014.2
20260503190956 17 352 11.3 16.1 0.00 0.00 0.00 37 1014.0
20260503190454 17 348 4.8 20.9 0.00 0.00 0.00 34 1014.1
20260503185951 15 242 3.2 12.9 0.00 0.00 0.00 39 1014.0
20260503185447 16 349 6.4 12.9 0.00 0.00 0.00 36 1014.4
20260503184946 15 182 9.7 25.7 0.00 0.00 0.00 38 1014.5
20260503184443 15 189 4.8 11.3 0.00 0.00 0.00 40 1014.4
20260503183939 15 290 1.6 12.9 0.00 0.00 0.00 43 1014.4
20260503183436 14 354 3.2 11.3 0.00 0.00 0.00 40 1014.6
20260503182933 13 180 4.8 11.3 0.00 0.00 0.00 41 1014.6
20260503182432 15 204 1.6 12.9 0.00 0.00 0.00 42 1014.4
20260503181929 14 15 4.8 8.0 0.00 0.00 0.00 40 1014.6
20260503181426 13 317 3.2 9.7 0.00 0.00 0.00 40 1014.8
20260503180922 14 243 3.2 11.3 0.00 0.00 0.00 41 1014.7
20260503180421 13 1 8.0 22.5 0.00 0.00 0.00 41 1014.6
20260503175916 15 1 6.4 9.7 0.00 0.00 0.00 40 1014.9
20260503175414 14 187 4.8 20.9 0.00 0.00 0.00 39 1015.0
20260503174909 14 114 0.0 8.0 0.00 0.00 0.00 45 1015.1
20260503174408 13 184 4.8 11.3 0.00 0.00 0.00 42 1015.0
20260503173903 14 351 4.8 8.0 0.00 0.00 0.00 44 1015.2
20260503173400 13 189 0.0 9.7 0.00 0.00 0.00 42 1015.0
20260503172856 13 334 4.8 14.5 0.00 0.00 0.00 40 1015.2
20260503172354 13 7 6.4 14.5 0.00 0.00 0.00 44 1015.3
20260503171850 12 329 3.2 11.3 0.00 0.00 0.00 43 1015.3
20260503171347 12 9 4.8 14.5 0.00 0.00 0.00 42 1015.3
20260503170845 13 283 6.4 12.9 0.00 0.00 0.00 42 1015.5
20260503170341 13 171 8.0 14.5 0.00 0.00 0.00 40 1015.4
20260503150733 10 173 3.2 11.3 0.00 0.00 0.00 42 1016.4
20260503150229 9 219 4.8 14.5 0.00 0.00 0.00 46 1016.4
20260503140153 8 176 8.0 11.3 0.00 0.00 0.00 56 1016.8
20260503131123 6 161 0.0 9.7 0.00 0.00 0.00 72 1016.9
20260503130621 6 202 1.6 9.7 0.00 0.00 0.00 73 1016.9
20260503130118 6 103 3.2 8.0 0.00 0.00 0.00 74 1017.0
20260503110510 1 77 0.0 3.2 0.00 0.00 0.00 91 1015.9
20260503090356 1 113 0.0 3.2 0.00 0.00 0.00 91 1015.2
20260503081323 0 111 0.0 3.2 0.00 0.00 0.00 91 1015.2
20260503080819 0 130 0.0 3.2 0.00 0.00 0.00 90 1015.2
20260503080317 0 123 1.6 3.2 0.00 0.00 0.00 90 1015.1
20260503072748 1 62 0.0 1.6 0.00 0.00 0.00 88 1015.1
20260503072245 1 19 0.0 3.2 0.00 0.00 0.00 88 1015.0
20260503071741 1 113 0.0 3.2 0.00 0.00 0.00 88 1015.0
20260503071238 2 126 0.0 3.2 0.00 0.00 0.00 87 1015.1
20260503070734 2 78 0.0 3.2 0.00 0.00 0.00 87 1015.0
20260503070232 2 80 0.0 1.6 0.00 0.00 0.00 87 1015.1
20260503060151 1 89 0.0 3.2 0.00 0.00 0.00 93 1015.0
20260503054638 1 126 0.0 1.6 0.00 0.00 0.00 92 1015.4
20260503054136 1 126 0.0 1.6 0.00 0.00 0.00 92 1015.2
20260503053633 1 113 0.0 1.6 0.00 0.00 0.00 92 1015.3
20260503053132 1 124 0.0 1.6 0.00 0.00 0.00 92 1015.2
20260503052628 1 89 0.0 3.2 0.00 0.00 0.00 92 1015.4
20260503052124 1 113 0.0 1.6 0.00 0.00 0.00 92 1015.3
20260503051620 1 50 0.0 3.2 0.00 0.00 0.00 92 1015.5
20260503051118 1 55 0.0 3.2 0.00 0.00 0.00 92 1015.2
20260503050614 1 98 0.0 3.2 0.00 0.00 0.00 91 1015.3
20260503050111 1 160 0.0 3.2 0.00 0.00 0.00 91 1015.5
20260503045609 2 52 0.0 3.2 0.00 0.00 0.00 91 1015.6
20260503045105 2 56 0.0 3.2 0.00 0.00 0.00 91 1015.3
20260503044602 2 135 0.0 3.2 0.00 0.00 0.00 91 1015.4
20260503044100 1 124 0.0 1.6 0.00 0.00 0.00 91 1015.6
20260503043555 2 23 0.0 4.8 0.00 0.00 0.00 91 1015.5
20260503043053 2 146 3.2 4.8 0.00 0.00 0.00 92 1015.6
20260503042549 2 198 0.0 3.2 0.00 0.00 0.00 92 1015.8
20260503042046 1 120 0.0 3.2 0.00 0.00 0.00 93 1015.6
20260503041543 1 178 0.0 4.8 0.00 0.00 0.00 93 1015.6
20260503041040 1 124 0.0 4.8 0.00 0.00 0.00 93 1015.5
20260503040537 1 42 0.0 3.2 0.00 0.00 0.00 92 1015.6
20260503040034 1 29 0.0 1.6 0.00 0.00 0.00 92 1015.6
20260503035532 1 70 0.0 3.2 0.00 0.00 0.00 91 1015.6
20260503035029 1 45 0.0 3.2 0.00 0.00 0.00 91 1015.5
20260503034526 1 10 0.0 3.2 0.00 0.00 0.00 90 1015.8
20260503034023 1 85 0.0 3.2 0.00 0.00 0.00 90 1015.8
20260503033520 1 46 0.0 3.2 0.00 0.00 0.00 90 1015.5
20260503033018 1 53 3.2 4.8 0.00 0.00 0.00 91 1015.7
20260503032516 1 0 0.0 3.2 0.00 0.00 0.00 90 1015.6
20260503032014 1 19 1.6 3.2 0.00 0.00 0.00 89 1015.5
20260503031512 1 77 0.0 3.2 0.00 0.00 0.00 87 1015.6
20260503031008 2 49 0.0 3.2 0.00 0.00 0.00 86 1015.6
20260503030504 2 57 0.0 3.2 0.00 0.00 0.00 86 1015.6
20260503030001 2 79 0.0 3.2 0.00 0.00 0.00 85 1015.4
20260503025458 2 123 0.0 3.2 0.00 0.00 0.00 83 1015.7
20260503024956 2 113 0.0 3.2 0.00 0.00 0.00 86 1015.8
20260503024452 2 40 0.0 3.2 0.00 0.00 0.00 86 1015.6
20260503023949 2 89 0.0 3.2 0.00 0.00 0.00 86 1015.6
20260503023446 2 35 0.0 3.2 0.00 0.00 0.00 86 1015.8
20260503022943 2 116 0.0 1.6 0.00 0.00 0.00 87 1015.8
20260503022438 2 89 0.0 3.2 0.00 0.00 0.00 87 1015.7
20260503021934 2 44 0.0 1.6 0.00 0.00 0.00 86 1015.8
20260503021431 3 89 0.0 3.2 0.00 0.00 0.00 85 1015.7
20260503020928 2 62 0.0 3.2 0.00 0.00 0.00 85 1015.8
20260503020426 2 60 0.0 1.6 0.00 0.00 0.00 85 1015.8
20260503015922 2 13 0.0 1.6 0.00 0.00 0.00 84 1015.7
20260503015419 3 89 0.0 3.2 0.00 0.00 0.00 83 1015.6
20260503014915 3 60 0.0 1.6 0.00 0.00 0.00 81 1015.8
20260503014412 3 72 0.0 3.2 0.00 0.00 0.00 81 1015.9
20260503013910 3 22 0.0 1.6 0.00 0.00 0.00 81 1015.8
20260503013407 4 32 0.0 3.2 0.00 0.00 0.00 81 1015.8
20260503012904 4 36 1.6 3.2 0.00 0.00 0.00 80 1015.7
20260503012402 3 119 0.0 3.2 0.00 0.00 0.00 79 1015.7
20260503011858 4 110 0.0 3.2 0.00 0.00 0.00 79 1015.9
20260503011355 4 146 0.0 3.2 0.00 0.00 0.00 78 1015.7
20260503010851 4 118 0.0 3.2 0.00 0.00 0.00 76 1015.7
20260503010348 5 166 1.6 3.2 0.00 0.00 0.00 76 1015.6
20260503005845 5 205 0.0 4.8 0.00 0.00 0.00 77 1015.5
20260503005343 5 114 1.6 4.8 0.00 0.00 0.00 76 1015.5
20260503004839 5 22 1.6 4.8 0.00 0.00 0.00 76 1015.8
20260503004336 5 15 0.0 4.8 0.00 0.00 0.00 75 1015.5
20260503003833 5 99 0.0 3.2 0.00 0.00 0.00 78 1015.6
20260503003325 4 15 0.0 3.2 0.00 0.00 0.00 77 1015.4
20260503002822 4 40 0.0 3.2 0.00 0.00 0.00 77 1015.3
20260503002319 5 46 1.6 3.2 0.00 0.00 0.00 75 1015.5
20260503001815 5 44 0.0 3.2 0.00 0.00 0.00 75 1015.2
20260503001311 5 18 1.6 3.2 0.00 0.00 0.00 77 1015.2
20260503000809 5 39 3.2 3.2 0.00 0.00 0.00 77 1015.1
20260503000307 5 68 1.6 3.2 0.00 0.00 0.00 76 1015.2
20260502235803 5 35 3.2 4.8 0.00 0.00 0.00 76 1015.1
20260502235301 5 22 3.2 4.8 0.00 0.00 0.00 76 1015.1
20260502234757 5 359 3.2 3.2 0.00 0.00 0.00 78 1015.0
20260502234254 5 187 0.0 3.2 0.00 0.00 0.00 78 1014.9
20260502233750 5 20 1.6 3.2 0.00 0.00 0.00 77 1015.0
20260502233247 5 6 3.2 4.8 0.00 0.00 0.00 76 1015.0
20260502232743 5 144 0.0 3.2 0.00 0.00 0.00 75 1015.0
20260502232240 5 165 0.0 3.2 0.00 0.00 0.00 77 1014.9
20260502231737 5 155 3.2 3.2 0.00 0.00 0.00 76 1014.9
20260502231235 5 16 1.6 3.2 0.00 0.00 0.00 75 1014.9
20260502230733 5 1 3.2 4.8 0.00 0.00 0.00 76 1015.0
20260502230231 5 16 4.8 6.4 0.00 0.00 0.00 77 1015.1
20260502225727 5 91 3.2 4.8 0.00 0.00 0.00 75 1015.0
20260502225224 5 353 3.2 4.8 0.00 0.00 0.00 75 1014.9
20260502224720 5 0 1.6 6.4 0.00 0.00 0.00 76 1015.2
20260502224217 5 11 3.2 4.8 0.00 0.00 0.00 76 1015.1
20260502223714 5 199 0.0 4.8 0.00 0.00 0.00 75 1015.3
20260502223212 5 177 1.6 6.4 0.00 0.00 0.00 75 1014.9
20260502222710 5 113 1.6 6.4 0.00 0.00 0.00 74 1015.1
20260502222206 5 130 0.0 3.2 0.00 0.00 0.00 75 1015.0
20260502221702 5 23 4.8 8.0 0.00 0.00 0.00 76 1015.0
20260502221159 5 155 1.6 8.0 0.00 0.00 0.00 73 1015.0
20260502220655 5 344 3.2 8.0 0.00 0.00 0.00 72 1015.0
20260502220151 5 137 3.2 11.3 0.00 0.00 0.00 72 1015.2
20260502215649 5 11 4.8 6.4 0.00 0.00 0.00 75 1015.1
20260502215145 5 8 6.4 8.0 0.00 0.00 0.00 75 1015.0
20260502214643 5 352 4.8 9.7 0.00 0.00 0.00 75 1014.9
20260502214140 6 2 4.8 4.8 0.00 0.00 0.00 75 1014.9
20260502213637 6 347 9.7 12.9 0.00 0.00 0.00 73 1014.8
20260502213134 6 74 1.6 8.0 0.00 0.00 0.00 74 1014.8
20260502212633 6 161 3.2 8.0 0.00 0.00 0.00 75 1015.1
20260502212131 6 3 6.4 8.0 0.00 0.00 0.00 72 1014.8
20260502211626 6 49 1.6 3.2 0.00 0.00 0.00 72 1014.8
20260502211123 6 190 3.2 9.7 0.00 0.00 0.00 73 1014.8
20260502210621 6 359 3.2 6.4 0.00 0.00 0.00 72 1014.8
20260502210112 6 10 3.2 8.0 0.00 0.00 0.00 71 1014.6
20260502205609 6 5 4.8 11.3 0.00 0.00 0.00 73 1014.5
20260502205106 6 349 3.2 4.8 0.00 0.00 0.00 74 1014.6
20260502204602 6 200 3.2 11.3 0.00 0.00 0.00 73 1014.6
20260502204100 7 200 1.6 8.0 0.00 0.00 0.00 73 1014.7
20260502203557 6 1 6.4 8.0 0.00 0.00 0.00 74 1014.8
20260502203055 6 138 4.8 11.3 0.00 0.00 0.00 78 1014.8
20260502202550 5 9 6.4 17.7 0.00 0.00 0.00 78 1015.0
20260502202048 5 326 1.6 6.4 0.00 0.00 0.00 78 1014.8
20260502201543 5 12 4.8 9.7 0.00 0.00 0.00 79 1014.6
20260502201035 5 119 3.2 8.0 0.00 0.00 0.00 81 1014.6
20260502200531 5 17 3.2 8.0 0.00 0.00 0.00 81 1015.0